Regional Weather Roundup
Issued by NWS Portland, ME

Current Version | Previous Version | Text Only | Print | Product List | Glossary Off
Versions: 1 2 3 4 5 6 7 8 9 10 11 12 13 14 15 16 17 18 19 20 21 22 23 24 25 26 27 28 29 30 31 32 33 34 35 36 37 38 39 40 41 42 43 44 45 46 47 48 49 50
000 ASUS41 KGYX 180010 RWRGYX WEATHER ROUNDUP FOR MAINE AND NEW HAMPSHIRE NATIONAL WEATHER SERVICE GRAY ME 700 PM EST FRI NOV 17 2017 MEZ002-005-006-010-012-015-018-020-021-024-026-027-029-180100- MAINE CITY SKY/WX TMP DP RH WIND PRES REMARKS PORTLAND CLEAR 31 16 54 VRB7 29.93R 6HR MIN TEMP: 29; 6HR MAX TEMP: 41; SANFORD CLEAR 29 19 66 W9 29.93R BAR HARBOR CLEAR 30 20 66 NW9G20 29.81R WISCASSET CLEAR 31 19 61 W7 29.91R 6HR MIN TEMP: 31; 6HR MAX TEMP: 40; ROCKLAND CLEAR 30 20 66 W16G22 29.86R WCI 19 FRYEBURG CLEAR 24 20 84 S3 29.90R 6HR MIN TEMP: 23; 6HR MAX TEMP: 38; LEWISTONAUBURN CLEAR 28 17 63 NW12 29.91R WCI 18 AUGUSTA CLEAR 28 17 63 W6 29.88R 6HR MIN TEMP: 28; 6HR MAX TEMP: 39; WATERVILLE CLEAR 28 17 63 W12G18 29.83R WCI 18 BANGOR CLEAR 29 18 63 NW12 29.82R WCI 19 6HR MIN TEMP: 29; 6HR MAX TEMP: 36; GREENVILLE N/A 23 18 81 NW28G37 29.74S WCI 6 6HR MIN TEMP: 22; 6HR MAX TEMP: 25; MILLINOCKET CLEAR 26 18 71 NW15G36 29.79R WCI 14 6HR MIN TEMP: 26; 6HR MAX TEMP: 32; HOULTON CLOUDY 30 22 72 NW12G20 29.70R 6HR MIN TEMP: 30; 6HR MAX TEMP: 34; PRESQUE ISLE FLURRIES 27 21 78 NW15G28 29.71R WCI 15 6HR MIN TEMP: 27; 6HR MAX TEMP: 33; 6HR PCP: TRACE; FRENCHVILLE CLOUDY 21 16 81 NW15G31 29.68R WCI 8 6HR MIN TEMP: 21; 6HR MAX TEMP: 26; 6HR PCP: TRACE; CARIBOU CLOUDY 26 19 74 NW18G28 29.69R WCI 13 6HR MIN TEMP: 26; 6HR MAX TEMP: 32; 6HR PCP: TRACE; $$ NHZ002-005-008-009-011-012-014-180100- NEW HAMPSHIRE CITY SKY/WX TMP DP RH WIND PRES REMARKS PORTSMOUTH CLEAR 32 15 50 NW13 29.94R ROCHESTER CLEAR 30 18 60 W8G18 29.92R 6HR MIN TEMP: 30; 6HR MAX TEMP: 38; NASHUA CLEAR 35 17 47 NW9 29.98R MANCHESTER CLEAR 34 18 52 VRB6 29.95R 6HR MIN TEMP: 34; 6HR MAX TEMP: 39; CONCORD CLEAR 32 16 51 NW16G26 29.97R 6HR MIN TEMP: 32; 6HR MAX TEMP: 37; LACONIA PTCLDY 27 18 69 W13 29.96R WCI 16 PLYMOUTH FAIR 28 16 63 W13G29 29.97R WCI 17 BERLIN CLOUDY 24 16 71 VRB7 29.96R 6HR MIN TEMP: 24; 6HR MAX TEMP: 27; 6HR PCP: TRACE; WHITEFIELD CLOUDY 24 16 71 W6 30.02R 6HR MIN TEMP: 24; 6HR MAX TEMP: 28; JAFFREY CLEAR 34 14 43 VRB6 29.95S 6HR MIN TEMP: 34; 6HR MAX TEMP: 38; KEENE CLEAR 25 18 74 NE3 30.00R LEBANON PTCLDY 28 18 66 N6 30.02R 6HR MIN TEMP: 27; 6HR MAX TEMP: 37; MT WASHINGTON MOCLDY 10 -17 28 NW76G89 N/A WCI -20 6HR MIN TEMP: 6; 6HR MAX TEMP: 13; $$ VTZ005-007-008-180100- VERMONT CITY SKY/WX TMP DP RH WIND PRES REMARKS ST JOHNSBURY N/A 22 17 81 MISG 30.03R MONTPELIER CLEAR 23 16 74 N6 30.07R BURLINGTON CLEAR 25 16 68 E6 30.10R $$ MAZ007-012-024-CTZ003-RIZ002-NYZ038-NYZ072-180100- SOUTHERN NEW ENGLAND AND NY CITY SKY/WX TMP DP RH WIND PRES REMARKS BOSTON CLEAR 39 16 39 W14 29.98R WORCESTER CLEAR 32 16 51 VRB5 29.95S NANTUCKET CLEAR 42 26 53 W17G26 29.95S PROVIDENCE CLEAR 38 20 48 W10 30.01R HARTFORD PTCLDY 33 17 51 NW6 30.03F ALBANY CLEAR 32 16 51 NW7 30.11R NEW YORK CITY PTCLDY 45 19 35 NW17 30.08R $$ ANZ081-ANZ082-ANZ150-NHZ014-MEZ023>029-180100- COASTAL MARINE OBSERVATIONS STATION/POSITION TIME TEMP WIND PRES WAVE AIR SEA DIR/SP/G HT/PER (UTC) (F) (DEG/KT/KT) (MB) (FT/S) MOUNT DESERT ROC 0000 34 290/ 29/ 34 1009.1R MATINICUS ROCK 2300 35 320/ 32/ 39 1009.1R ISLE OF SHOALS 2300 35 290/ 25/ 28 1012.7R JEFFREYS LEDGE 2336 53 N/A 7/ 6 GEORGES BANK BUO 2350 48 54 1008.7R 12/ 9 $$ .............KEY.............. WCI - WIND CHILL TC - TEMPERATURE IN CELSIUS VSB - VISIBILITY IN MILES HX - HEAT INDEX FAIR- INDICATES FEW OR NO CLOUDS BELOW 12,000 FT, WITH NO SIGNIFICANT WEATHER AND/OR OBSTRUCTIONS TO VISIBILITY.

USA.gov is the U.S. government's official web portal to all federal, state and local government web resources and services.